Wind_Speed
24 25 26 27 30 30 31 33 34 30 27 25 21 17 21 24 19 15 8 7 5 7 6 5 8 6 3 8 15 21 23 22 26 29 32 29 27 19 14 16 23 28 29
23 24 25 28 26 29 32 33 28 27 25 21 16 17 21 21 12 6 9 7 1 5 4 7 9 9 7 8 12 18 24 26 27 27 29 29 27 21 15 22 27 28 31
23 23 26 26 27 29 31 29 26 27 22 16 13 18 20 10 7 5 5 1 3 5 6 11 12 14 14 14 13 15 19 22 25 26 27 29 30 25 26 27 27 30 33
23 24 25 27 27 30 29 25 25 23 15 13 15 19 10 5 4 2 3 3 3 3 7 11 12 17 22 24 23 23 22 23 27 30 30 32 35 36 35 34 31 31 35
22 23 26 28 28 28 25 23 18 11 9 12 14 11 1 6 6 8 6 6 9 10 14 14 16 18 25 30 32 33 31 32 33 36 40 44 41 37 35 34 28 28 33
20 22 26 27 28 24 20 15 9 7 8 11 6 7 9 9 12 15 18 16 14 15 16 19 21 18 30 32 30 28 36 39 43 45 44 40 36 33 36 36 30 25 29
19 22 25 26 21 20 15 9 5 3 7 4 7 10 16 14 21 20 21 22 23 22 21 25 25 29 29 27 27 32 32 32 35 34 34 34 29 22 24 26 26 29 29
20 23 24 21 17 15 9 3 2 3 3 5 9 20 18 24 24 27 32 33 36 38 35 34 32 32 29 27 29 31 32 38 40 37 33 31 29 27 29 30 26 25 23
20 23 21 18 17 11 4 5 1 2 1 10 20 25 22 29 29 32 36 36 37 37 42 41 42 42 41 38 33 35 39 39 40 39 37 34 34 32 27 23 19 18 14
20 22 18 17 12 4 6 3 0 1 8 13 26 26 32 33 31 33 34 35 33 32 33 35 34 34 39 38 38 40 37 35 32 30 30 28 27 24 21 17 13 9 3
18 18 15 10 3 7 7 4 2 7 16 19 28 31 33 34 35 30 28 31 30 26 29 30 30 35 35 34 33 32 28 27 27 25 23 23 20 18 14 13 7 3 4
15 14 12 2 7 6 6 4 4 16 20 30 30 32 29 30 31 27 27 28 29 29 28 23 25 29 27 26 27 26 24 24 21 18 14 12 11 9 8 7 8 6 3
12 11 7 3 5 4 5 5 11 22 23 37 32 30 32 33 28 26 26 26 26 22 23 24 24 24 24 22 20 21 18 17 12 6 3 6 7 9 9 11 7 6 3
8 8 4 3 5 5 4 5 13 21 20 38 34 29 37 33 28 28 24 26 23 18 20 20 20 22 16 14 14 10 6 7 8 10 8 7 6 8 10 10 8 5 5
4 7 5 3 5 7 5 6 14 21 26 35 35 32 28 34 28 29 24 24 22 20 20 16 18 18 11 9 8 6 5 7 7 5 9 9 10 11 13 12 7 4 7
1 6 3 4 5 6 7 7 16 23 23 23 32 33 31 27 27 24 19 18 25 22 21 17 15 13 13 12 9 8 7 7 6 7 10 12 13 12 12 12 8 8 13
1 5 4 3 5 5 7 10 14 26 24 20 22 27 28 29 29 25 26 23 22 22 18 17 18 17 18 19 16 12 11 8 8 11 13 12 13 12 12 12 12 13 15
2 3 6 7 6 7 9 10 13 21 27 28 20 16 24 23 26 26 21 22 21 20 18 20 18 18 15 14 13 13 14 12 12 14 16 15 14 15 14 12 13 21 22
4 0 6 9 10 10 11 11 13 14 20 22 24 25 21 18 20 20 20 17 21 21 17 16 15 13 14 15 16 14 16 15 15 17 16 16 14 13 15 14 15 19 22
5 2 0 4 7 11 11 11 11 12 14 15 17 23 26 24 21 21 22 21 18 19 17 17 17 15 16 17 16 19 19 20 21 17 14 16 18 18 18 20 18 19 23
13 7 3 2 3 6 10 11 10 9 10 11 13 13 11 16 24 26 23 24 23 23 22 19 20 19 21 21 23 23 20 19 17 18 18 16 15 15 15 18 23 26 28
17 16 13 10 8 7 6 6 6 7 5 6 9 11 14 15 15 16 19 21 21 21 21 20 20 18 19 20 18 17 17 17 16 16 16 16 14 14 16 18 20 22 29
23 19 16 16 13 12 11 9 5 2 3 4 4 2 4 10 12 13 14 15 15 15 15 14 12 11 11 11 11 11 12 14 14 13 14 14 13 14 15 18 21 24 25
31 26 23 19 16 14 14 12 10 9 6 5 3 2 1 4 7 9 10 11 12 12 12 10 8 7 7 7 8 7 6 7 11 14 16 16 15 17 20 21 23 24 27
39 35 32 27 23 21 20 18 16 14 12 11 9 8 6 5 9 13 12 11 10 11 10 9 9 10 10 11 12 12 12 13 15 17 19 22 24 25 25 25 25 26 28
47 43 40 39 33 28 26 27 24 21 20 17 17 18 17 16 15 14 15 18 20 20 22 21 19 19 19 21 22 23 24 25 25 24 23 25 28 30 31 33 33 33 34
Wind_Direction
279 278 283 290 295 295 299 301 301 296 297 294 291 290 303 316 322 328 307 305 353 12 4 10 17 23 108 158 175 183 187 182 183 184 189 194 190 191 204 183 178 183 187
276 280 290 292 296 304 303 301 298 296 292 287 283 295 308 313 323 329 329 324 57 50 54 57 60 63 95 141 170 176 183 184 182 182 183 188 187 187 172 159 161 168 169
274 285 292 299 303 302 300 300 299 296 285 272 290 311 312 308 334 353 328 41 90 68 107 89 81 83 81 97 123 158 164 172 177 181 185 180 176 166 146 146 145 155 161
275 292 298 301 303 305 304 303 300 290 274 272 292 308 310 325 67 14 113 102 76 80 134 110 107 98 92 96 102 111 127 144 151 153 156 149 142 140 135 133 134 141 158
285 295 300 302 308 308 307 303 290 266 275 298 299 310 183 110 108 96 71 74 85 113 122 113 126 113 102 95 95 95 105 118 125 128 133 131 131 135 139 146 147 146 145
293 299 300 307 311 309 301 289 283 285 297 306 316 125 126 124 117 103 84 101 111 125 124 127 131 116 107 94 97 101 100 110 119 126 128 133 137 136 138 142 142 147 144
292 298 306 311 312 300 285 281 270 298 318 336 118 120 141 140 127 111 99 103 102 102 115 126 128 119 108 98 100 101 102 104 114 123 135 132 131 127 121 130 132 131 131
289 302 309 313 305 289 271 228 200 315 324 140 117 134 134 135 125 117 114 107 103 95 99 107 115 114 113 112 113 114 104 107 105 114 120 116 114 115 125 130 122 132 133
293 304 314 312 298 282 221 174 197 290 164 138 145 138 132 131 123 123 122 116 109 102 100 107 103 105 104 111 119 122 115 113 113 112 113 118 124 125 126 133 129 130 123
300 312 318 308 291 232 164 170 139 213 158 136 156 142 130 130 121 128 126 120 111 109 108 111 111 110 108 109 114 118 119 120 119 122 126 128 131 134 137 140 145 158 130
310 319 323 314 234 144 154 164 135 151 136 139 150 141 140 136 131 130 134 127 122 123 120 116 116 119 114 114 118 124 125 126 124 122 126 127 132 136 142 157 139 141 216
319 329 323 336 127 135 146 109 139 145 133 151 148 147 146 146 142 139 139 140 138 134 127 129 123 128 126 126 123 122 123 131 135 125 136 139 137 155 180 180 197 202 240
324 328 323 97 124 117 129 125 137 158 145 159 153 153 154 153 147 140 152 141 135 135 140 136 131 131 133 141 144 147 152 154 154 145 107 164 185 200 199 202 201 245 231
337 333 346 104 145 143 133 169 141 163 154 163 158 150 160 157 157 153 148 154 153 143 146 145 145 156 159 143 143 144 162 203 226 234 218 208 202 212 218 222 232 238 168
350 3 12 66 149 147 122 148 151 160 154 166 165 159 156 168 152 157 161 156 164 163 160 156 168 165 175 184 176 200 196 234 244 242 226 222 232 243 249 248 234 217 208
20 47 31 71 125 143 135 136 157 168 170 157 170 174 167 165 173 183 170 175 179 181 186 192 197 214 215 220 246 261 287 284 257 236 240 245 252 253 247 249 237 219 200
322 87 82 97 99 131 135 127 152 171 173 175 163 173 180 189 189 179 187 192 191 198 209 210 216 228 231 245 255 265 263 255 260 263 261 268 265 251 250 234 247 219 203
270 82 90 93 124 117 131 138 142 174 182 183 189 175 179 188 195 207 213 212 215 212 217 218 229 238 234 233 243 249 244 251 253 269 274 269 266 249 248 247 243 208 211
238 186 111 107 110 120 127 139 144 154 187 194 192 199 202 197 199 199 199 208 213 223 220 218 220 221 220 231 248 253 244 256 266 279 265 256 251 261 254 238 232 223 216
188 223 247 108 127 120 115 119 133 150 160 170 191 208 214 216 217 217 209 221 221 219 223 219 230 246 244 243 243 254 266 266 269 274 259 258 261 262 253 243 247 233 227
181 180 130 125 107 143 134 132 133 135 146 167 177 185 193 205 217 222 224 223 231 238 239 242 238 252 245 245 257 262 260 254 257 262 264 267 266 261 252 244 239 238 243
205 190 183 167 152 149 136 123 114 104 116 169 174 183 189 193 202 212 222 228 233 239 242 244 245 246 247 250 251 257 260 262 259 257 259 263 265 265 251 252 251 246 239
203 212 211 199 196 185 177 164 153 119 70 57 39 258 227 209 202 207 211 216 221 226 232 233 233 235 241 248 253 253 254 251 254 259 254 251 258 266 265 257 257 256 258
207 210 214 227 222 217 219 216 208 202 197 193 195 181 182 241 234 221 210 203 203 202 201 198 205 216 224 224 229 236 254 256 248 248 249 255 275 283 282 280 280 282 283
215 216 220 220 218 229 229 225 227 226 224 224 223 224 225 227 218 214 215 214 214 202 205 232 255 252 255 260 260 258 263 268 266 256 256 263 272 279 281 285 287 285 286
217 218 222 225 219 224 231 231 231 238 239 241 244 242 242 240 237 240 243 239 235 238 247 258 257 256 266 273 275 276 277 279 280 279 278 280 282 282 282 283 286 286 285
Height
10652 10651 10649 10647 10644 10640 10636 10632 10627 10623 10620 10617 10614 10613 10611 10609 10605 10603 10600 10597 10594 10592 10590 10586 10583 10579 10576 10576 10577 10581 10585 10589 10593 10599 10607 10615 10623 10628 10632 10635 10641 10649 10658
10645 10644 10643 10641 10637 10632 10627 10624 10620 10616 10614 10612 10611 10610 10607 10605 10604 10600 10597 10595 10593 10591 10589 10587 10585 10581 10578 10577 10578 10579 10582 10586 10591 10598 10606 10614 10621 10628 10632 10636 10642 10650 10659
10639 10638 10636 10632 10629 10625 10622 10617 10614 10611 10609 10608 10607 10605 10603 10601 10600 10598 10596 10594 10592 10591 10590 10589 10587 10584 10582 10580 10579 10580 10581 10585 10590 10597 10604 10611 10619 10627 10634 10639 10645 10652 10660
10633 10632 10628 10624 10622 10617 10613 10610 10607 10605 10604 10604 10603 10601 10599 10598 10597 10596 10596 10593 10591 10591 10590 10590 10590 10589 10588 10585 10583 10583 10584 10587 10592 10597 10604 10612 10620 10629 10637 10644 10650 10656 10664
10628 10625 10621 10617 10613 10609 10605 10603 10602 10601 10599 10598 10597 10596 10597 10597 10597 10597 10595 10593 10592 10591 10591 10591 10592 10593 10593 10592 10591 10590 10591 10593 10597 10603 10610 10617 10625 10634 10642 10649 10655 10661 10666
10623 10619 10615 10610 10606 10602 10599 10598 10597 10596 10595 10594 10593 10595 10596 10597 10598 10598 10597 10595 10595 10594 10592 10593 10595 10597 10598 10599 10599 10600 10602 10604 10607 10612 10618 10625 10632 10639 10646 10654 10661 10665 10668
10617 10614 10610 10605 10601 10598 10596 10594 10594 10594 10593 10593 10594 10594 10596 10598 10600 10600 10601 10600 10599 10597 10596 10598 10600 10602 10603 10605 10607 10608 10611 10614 10617 10622 10627 10632 10639 10647 10653 10658 10663 10668 10673
10613 10610 10605 10601 10598 10596 10593 10592 10593 10593 10593 10594 10594 10595 10598 10600 10602 10603 10606 10607 10607 10605 10605 10606 10607 10610 10611 10613 10615 10618 10621 10624 10627 10631 10636 10641 10647 10653 10657 10664 10668 10672 10676
10609 10605 10600 10596 10594 10592 10591 10591 10592 10593 10593 10595 10596 10599 10601 10604 10605 10608 10610 10612 10614 10615 10615 10617 10618 10619 10619 10621 10623 10627 10630 10632 10636 10640 10644 10649 10653 10659 10664 10669 10672 10675 10677
10605 10600 10596 10592 10589 10588 10588 10590 10591 10592 10593 10596 10598 10602 10605 10608 10610 10613 10616 10618 10619 10621 10622 10624 10627 10629 10630 10631 10634 10637 10639 10642 10645 10649 10652 10656 10660 10665 10669 10672 10674 10676 10678
10600 10596 10593 10590 10587 10587 10588 10589 10590 10591 10595 10597 10601 10605 10608 10611 10614 10618 10621 10623 10625 10627 10629 10631 10632 10635 10637 10640 10643 10645 10648 10651 10654 10657 10659 10662 10664 10667 10671 10673 10674 10675 10676
10597 10593 10591 10589 10587 10588 10588 10588 10589 10591 10595 10599 10604 10608 10612 10614 10618 10621 10625 10627 10629 10632 10634 10637 10640 10642 10643 10645 10648 10651 10654 10657 10659 10661 10664 10665 10667 10669 10671 10672 10673 10674 10674
10595 10593 10591 10588 10587 10588 10588 10589 10589 10592 10596 10600 10605 10609 10613 10617 10620 10624 10628 10631 10634 10636 10638 10641 10644 10646 10649 10650 10653 10656 10658 10661 10663 10664 10664 10666 10667 10668 10669 10670 10671 10671 10671
10593 10592 10589 10587 10587 10588 10589 10589 10590 10594 10598 10602 10607 10611 10615 10618 10622 10626 10630 10634 10637 10639 10641 10644 10647 10650 10651 10653 10655 10658 10661 10662 10663 10663 10664 10664 10665 10666 10668 10669 10669 10668 10668
10592 10591 10587 10587 10587 10588 10588 10589 10590 10595 10600 10605 10608 10612 10615 10619 10623 10627 10631 10635 10638 10640 10643 10646 10648 10651 10652 10654 10656 10658 10660 10661 10661 10661 10661 10662 10663 10664 10664 10664 10666 10666 10668
10591 10589 10587 10587 10587 10588 10589 10589 10591 10596 10601 10606 10609 10612 10616 10621 10625 10628 10631 10635 10638 10641 10643 10645 10648 10650 10652 10653 10654 10656 10657 10657 10658 10659 10659 10660 10661 10662 10662 10661 10664 10665 10666
10590 10590 10589 10587 10588 10589 10590 10590 10591 10596 10601 10605 10610 10613 10616 10619 10623 10627 10630 10634 10637 10640 10643 10645 10647 10648 10649 10650 10651 10653 10654 10655 10656 10657 10657 10658 10659 10660 10660 10661 10662 10663 10664
10590 10590 10589 10589 10589 10590 10591 10592 10593 10596 10601 10605 10608 10611 10615 10619 10622 10626 10629 10631 10634 10636 10639 10642 10643 10644 10646 10647 10649 10650 10651 10652 10653 10654 10654 10654 10655 10655 10657 10657 10658 10659 10661
10590 10591 10590 10590 10590 10591 10592 10593 10594 10597 10600 10603 10607 10610 10614 10617 10619 10622 10625 10628 10631 10633 10635 10638 10639 10641 10642 10643 10644 10645 10646 10647 10648 10649 10649 10649 10650 10651 10652 10653 10654 10655 10656
10589 10591 10591 10591 10592 10592 10593 10594 10595 10597 10598 10601 10604 10607 10610 10614 10617 10620 10622 10625 10627 10630 10632 10634 10635 10636 10638 10639 10640 10641 10642 10643 10643 10643 10644 10645 10645 10646 10646 10648 10649 10651 10651
10587 10590 10591 10592 10593 10593 10593 10594 10596 10598 10599 10600 10601 10604 10606 10609 10612 10615 10618 10621 10623 10626 10628 10630 10631 10632 10633 10634 10635 10636 10636 10637 10638 10639 10640 10640 10640 10640 10641 10641 10642 10644 10645
10584 10587 10589 10591 10593 10594 10595 10596 10596 10597 10599 10600 10601 10602 10603 10605 10608 10611 10613 10616 10618 10620 10622 10624 10625 10626 10628 10629 10630 10631 10632 10633 10633 10633 10634 10634 10634 10635 10636 10635 10636 10636 10638
10580 10584 10587 10588 10590 10592 10594 10595 10596 10598 10599 10601 10602 10603 10603 10605 10605 10607 10609 10612 10614 10616 10618 10620 10621 10622 10624 10625 10626 10627 10628 10628 10629 10630 10630 10631 10632 10632 10632 10633 10633 10633 10633
10573 10577 10581 10585 10587 10590 10592 10593 10595 10597 10599 10600 10601 10602 10603 10604 10605 10607 10609 10610 10612 10613 10615 10617 10618 10620 10620 10621 10622 10623 10623 10624 10625 10627 10628 10628 10629 10628 10628 10628 10628 10628 10627
10566 10570 10574 10577 10580 10583 10587 10590 10592 10594 10596 10598 10600 10601 10602 10604 10605 10606 10608 10609 10611 10612 10613 10614 10615 10615 10616 10618 10618 10618 10619 10620 10621 10622 10622 10622 10622 10622 10621 10621 10620 10620 10618
10556 10561 10565 10568 10571 10575 10579 10582 10585 10588 10591 10594 10596 10598 10600 10601 10602 10603 10604 10606 10607 10609 10609 10610 10611 10612 10612 10613 10614 10615 10615 10615 10615 10615 10615 10614 10613 10612 10612 10610 10610 10609 10607